Location: Unspecified
(0.0000°N, 0.0000°E)
Time: 14:00:43
(UTC+00:00)

N. Korean satellite - Pass Details

Date: 04 December 2021
Orbit: 446 x 495 km, 97.3° (Epoch: 07 December)

Event Time Altitude Azimuth Distance (km) Brightness Sun altitude
Rises 05:01:03 0° 4° (N) 2,433 9.9 -11.4°
Reaches altitude 10° 05:03:05 10° 359° (N) 1,569 8.9 -10.9°
Maximum altitude 05:06:23 55° 281° (W) 547 6.5 -10.1°
Drops below altitude 10° 05:09:44 10° 202° (SSW) 1,596 9.2 -9.4°
Sets 05:11:49 0° 198° (SSW) 2,480 10.2 -8.9°
